Location: Grand Lay
(47.3253°N, 0.9468°E)
Time: 20:24:47
(UTC+00:00)

Gbstr 26 Del rocket - Pass Details

Date: 17 April 2026
Orbit: 490 x 1216 km, 51.8° (Epoch: 13 May)

Event Time Altitude Azimuth Distance (km) Brightness Sun altitude
Exits shadow 04:19:22 - 294° (WNW) 2,571 5.9 -8.0°
Reaches altitude 10° 04:21:30 10° 293° (WNW) 1,683 4.9 -7.7°
Maximum altitude 04:25:13 77° 208° (SSW) 513 2.6 -7.1°
Drops below altitude 10° 04:29:05 10° 122° (ESE) 1,756 5.9 -6.5°
Sets 04:31:23 0° 121° (ESE) 2,709 6.9 -6.1°
